SCP
0 0 0 0 0 0 0 0 0 0 0 0 0 0 0 0 0 0 0 0 0 0 0 0 0 0 0 0 0 0 0 0 0 0 0 0 0 -0 0 0 0 -0 0 0 0 -0 -0 -0 0 0 0 0 0 0
0 0 0 0 0 0 0 0 0 0 0 0 0 0 0 0 0 0 0 0 0 0 0 0 0 0 0 0 0 0 0 0 0 0 0 0 0 -0 0 -0 0 0 -0 0 0 0 0 0 0 0 0 0 0 0
0 0 0 0 0 0 0 0 0 0 0 0 0 0 -0 0 0 0 0 0 0 0 0 0 0 0 0 0 0 0 0 0 0 0 0 0 0 0 -0 -0 -0 -0 0 -0 -0 0 -0 -0 -0 0 0 0 0 0
0 0 0 0 0 0 0 0 0 0 0 0 0 0 -0 0 0 0 0 0 0 0 0 0 0 0 0 0 0 0 0 0 0 0 0 0 0 0 -0 -0 -0 -0 0 -0 -0 -0 0 -0 0 -0 0 0 0 0
0 0 0 0 0 0 0 0 0 0 0 0 0 0 -0 -0 0 0 0 0 0 0 0 0 -0 0 -0 0 0 0 0 0 0 0 0 0 0 -0 0 -0 -0 -0 -0 -0 0 0 -0 0 0 -0 0 0 0 0
0 0 0 0 0 0 0 0 0 0 0 0 0 0 -0 -0 0 0 0 0 0 0 0 0 0 0 0 -0 0 0 0 0 0 0 0 0 0 -0 -0 -0 -0 -0 -0 -0 0 -0 -0 -0 0 0 0 0 0 0
0 0 0 0 0 0 0 0 0 0 -0 0 0 0 0 0 0 0 0 0 0 0 0 0 0 0 -0 -0 -0 0 0 0 0 0 0 0 0 0 -0 -0 -0 -0 -0 -0 0 -0 0 0 0 0 0 0 0 0
0 0 0 0 0 0 0 0 0 0 0 0 0 0 0 0 0 0 0 0 0 0 0 0 0 0 0 0 0 0 0 0 0 0 0 0 0 0 0 0 0 -0 -0 -0 -0 -0 0 0 0 0 0 0 0 0
0 0 0 0 0 0 0 0 0 0 0 0 0 0 0 0 0 0 0 0 0 0 0 0 0 0 0 0 0 0 0 0 0 0 0 0 0 0 0 0 0 0 -0 -0 -0 -0 -0 0 0 0 0 0 0 0
0 0 0 0 0 0 0 0 0 0 0 0 0 0 0 0 0 0 0 0 0 0 0 0 0 0 0 0 0 0 0 0 0 0 0 0 0 0 0 0 0 0 0 -0 -0 -0 0 0 0 0 0 0 0 0
0 0 0 0 0 0 0 0 0 0 0 0 0 0 0 0 0 0 0 0 0 0 0 0 0 0 0 0 0 0 0 0 0 0 0 0 0 0 0 0 0 0 -0 -0 -0 -0 -0 -0 0 0 0 0 0 0
0 0 0 0 0 0 0 0 0 0 0 0 0 0 0 0 0 0 0 0 0 0 0 0 0 0 0 0 0 0 0 0 0 0 0 0 0 0 0 0 0 0 0 0 0 0 -0 -0 -0 0 0 0 0 0
0 0 0 0 0 0 0 0 0 0 0 0 0 0 0 0 0 0 0 0 0 0 0 0 0 0 0 0 0 0 0 0 -0 0 0 0 0 0 -0 0 0 0 -0 -0 0 0 0 -0 -0 0 0 0 0 0
0 0 0 0 0 0 0 0 0 0 0 0 0 0 0 0 0 0 -0 -0 -0 0 0 0 0 0 0 0 0 0 0 0 0 0 0 0 0 -0 0 0 0 0 0 0 -0 0 0 -0 -0 0 0 0 0 0
0 0 0 0 0 0 0 0 0 0 0 0 0 0 0 0 -0 -0 0 0 -0 0 0 0 0 0 0 0 0 0 0 0 0 0 0 0 0 0 0 0 0 0 0 0 -0 -0 -0 0 0 0 0 0 0 0
0 0 0 0 0 0 0 0 0 0 0 0 0 0 0 0 0 -0 -0 0 0 0 0 0 0 0 0 0 0 0 0 0 0 0 0 0 0 0 0 0 0 0 0 0 0 -0 -0 -0 -0 -0 0 0 0 0
0 0 0 0 0 0 0 0 0 0 0 0 0 0 0 0 0 0 0 0 0 0 0 0 0 0 0 0 0 0 0 0 0 0 0 0 -0 0 -0 0 0 0 0 0 0 0 -0 -0 -0 -0 0 0 0 0
0 0 0 0 0 0 0 0 0 0 0 0 0 0 0 0 0 0 0 0 0 0 0 0 0 0 0 0 0 0 0 0 0 0 0 0 0 0 0 0 0 0 -0 0 0 0 0 -0 -0 0 0 0 0 0
0 0 0 0 0 0 0 0 0 0 0 0 0 0 0 0 0 0 0 0 0 0 0 0 0 0 0 0 0 0 0 0 0 0 0 0 0 0 0 0 0 0 0 0 0 0 0 -0 -0 -0 0 -0 -0 0
0 0 0 0 0 0 0 0 0 0 0 0 0 -0 0 0 0 0 0 0 0 0 0 0 0 0 0 0 0 0 0 0 0 0 0 0 0 0 -0 -0 0 0 0 0 0 0 0 0 0 -0 -0 -0 -0 0
0 0 0 0 0 0 0 0 0 0 0 0 0 0 0 0 -0 -0 -0 0 0 0 0 0 0 0 0 0 0 0 0 0 0 0 0 0 0 0 -0 -0 0 0 0 0 0 0 0 0 0 0 -0 -0 -0 -0
0 0 0 0 0 0 0 0 0 0 0 0 0 0 0 0 0 0 0 0 0 0 0 0 0 0 0 0 0 0 0 0 0 0 0 0 0 0 -0 -0 0 0 0 0 0 0 0 0 0 0 0 -0 -0 -0
0 0 0 0 0 0 0 0 0 0 0 0 0 0 0 0 0 0 0 0 0 0 0 0 0 0 0 0 0 0 0 0 0 0 0 0 0 0 0 0 0 0 0 0 0 0 0 0 0 0 0 0 0 0
0 0 0 0 0 0 0 0 0 0 0 0 0 0 0 0 0 0 0 0 0 0 0 0 0 0 0 0 0 0 0 0 0 0 0 0 0 0 0 0 0 0 0 0 0 0 0 0 0 0 0 0 0 0
0 0 0 0 0 0 0 0 0 0 0 0 0 0 0 0 0 0 0 0 0 0 0 0 0 0 0 0 0 0 0 0 0 0 0 0 0 0 0 0 0 0 0 0 0 0 0 0 0 0 0 0 0 0
0 0 0 0 0 0 0 0 0 0 -0 -0 0 0 0 -0 0 0 0 -0 0 0 0 0 0 0 0 0 0 0 0 0 0 0 0 0 0 0 0 0 0 0 0 0 0 0 0 0 0 0 0 0 0 0
0 0 0 0 0 0 0 0 0 0 0 0 0 0 -0 -0 0 0 0 -0 0 0 0 0 0 0 0 0 0 0 0 0 0 0 0 0 0 -0 0 0 0 0 0 0 0 0 0 0 0 0 0 0 0 0
0 0 -0 0 0 0 0 0 0 0 0 0 0 0 -0 -0 -0 0 -0 -0 0 0 0 0 0 0 0 0 0 0 0 0 0 0 0 0 0 0 0 0 0 0 0 0 0 0 0 0 0 0 0 0 0 0
0 0 0 -0 -0 0 -0 -0 -0 0 0 0 0 0 0 -0 -0 -0 -0 -0 -0 0 0 0 0 0 0 -0 0 0 0 0 0 0 0 0 0 0 0 0 0 0 0 0 0 0 0 0 0 0 0 0 0 0
0 0 0 0 0 0 0 0 -0 -0 0 0 0 0 0 0 0 0 0 0 -0 0 0 0 0 0 -0 -0 -0 0 0 0 0 0 0 0 0 0 0 0 0 0 0 0 0 0 0 0 0 0 0 0 0 0
0 0 0 0 0 -0 0 0 -0 -0 0 0 0 0 0 0 0 0 0 0 0 0 0 0 0 0 0 -0 0 0 0 0 0 0 0 0 0 0 0 0 0 0 0 0 0 0 0 0 0 0 0 0 0 0
0 0 0 0 0 0 -0 -0 -0 0 0 0 0 0 -0 0 0 0 0 0 0 0 0 0 0 0 0 0 0 0 0 0 0 0 0 0 0 0 0 0 0 0 0 0 0 0 0 0 0 0 0 0 0 0
0 0 0 0 0 0 -0 0 0 -0 -0 -0 0 0 0 0 0 0 0 0 0 0 0 0 0 0 0 0 0 0 0 0 0 0 0 0 0 0 0 0 0 0 0 0 0 0 0 0 0 0 0 0 0 0
Wind_Speed_500mb
55 55 57 60 61 62 59 58 62 60 49 47 47 47 48 48 46 42 49 19 33 24 56 58 39 44 28 11 4 19 22 8 9 11 7 7 5 8 8 6 9 4 6 7 8 2 5 31 38 12 18 45 17 47
56 58 62 63 60 61 64 66 58 54 48 47 48 50 49 48 48 44 47 12 26 31 44 69 68 49 44 54 31 3 12 16 7 5 6 6 5 4 9 5 9 3 4 5 1 5 9 38 37 41 37 42 48 52
61 60 63 61 62 63 73 65 52 52 54 54 55 54 53 48 49 49 50 33 22 34 48 13 35 14 17 25 35 12 10 8 4 14 8 5 7 3 4 5 7 16 16 6 3 7 9 10 36 57 64 65 47 48
64 63 57 61 69 72 68 60 54 55 57 57 56 51 49 47 48 54 51 24 23 15 9 14 17 15 18 29 15 3 22 18 20 20 8 5 6 10 1 4 2 8 11 18 8 13 29 24 45 43 50 47 52 43
59 57 59 64 67 70 61 56 56 56 55 50 44 42 45 49 51 49 39 22 36 23 9 26 45 20 40 31 17 10 11 9 10 9 6 6 9 6 4 3 6 10 4 6 7 27 21 40 52 51 37 39 48 46
60 64 66 59 63 64 61 56 55 52 47 43 42 43 49 49 49 16 9 4 19 30 12 7 21 9 34 34 22 23 16 9 9 10 11 10 10 6 5 3 1 8 10 15 11 34 36 46 35 43 41 35 36 45
58 56 56 57 59 60 59 55 55 50 43 43 43 43 45 42 26 13 4 1 17 25 8 11 10 8 39 28 34 36 30 14 14 10 9 11 9 4 3 2 11 11 16 21 26 30 23 27 38 44 33 33 37 33
53 54 50 54 53 56 57 53 52 50 45 38 37 38 36 26 9 9 20 15 19 23 11 6 8 13 36 22 12 27 15 17 14 11 8 6 5 2 4 1 22 24 13 22 22 20 31 35 34 35 28 28 35 32
47 47 48 48 51 54 56 53 49 50 38 33 30 37 23 7 7 9 13 25 38 16 8 7 5 6 13 17 13 14 13 5 11 8 7 5 3 3 10 20 22 18 19 25 27 34 43 35 34 29 27 26 36 36
46 44 45 46 49 50 52 51 47 46 30 29 18 9 4 6 13 11 7 9 11 13 13 10 27 9 5 9 6 5 8 5 4 9 7 5 5 6 15 8 6 16 19 25 28 39 38 38 34 37 31 32 31 35
43 42 43 44 44 45 47 44 41 43 28 19 12 9 10 3 9 8 9 13 14 9 16 17 37 17 9 7 5 3 1 7 6 4 6 4 4 11 2 14 13 19 24 22 23 29 34 38 33 42 34 25 26 28
42 40 40 41 41 40 30 28 37 36 26 27 25 39 27 7 10 8 7 8 11 9 23 11 22 33 8 7 6 1 1 6 7 9 5 1 4 13 12 5 9 10 21 28 33 31 39 34 34 43 29 19 25 27
39 39 38 38 36 27 26 33 41 44 35 16 5 5 7 7 7 11 10 8 8 9 21 22 6 12 10 8 3 2 3 7 16 6 4 4 11 13 5 9 17 18 28 28 32 34 34 39 36 42 38 23 25 21
38 35 34 34 21 23 33 43 53 45 15 8 8 8 11 11 11 12 15 13 17 21 9 10 14 11 10 9 6 6 8 2 5 3 6 6 19 28 13 11 13 23 27 24 26 31 37 30 42 37 39 39 40 37
34 32 24 17 27 40 48 53 38 18 8 10 12 10 13 27 36 39 38 38 38 8 11 5 5 18 6 7 7 4 5 4 9 7 5 9 17 15 15 11 12 17 15 20 24 30 26 35 56 45 36 32 36 41
29 18 11 32 47 54 47 40 26 9 9 12 17 13 26 25 25 36 34 20 24 23 13 5 0 6 7 6 8 10 8 10 7 7 20 15 8 2 5 8 6 9 7 13 16 23 32 30 43 45 52 39 36 39
28 6 34 45 47 44 32 20 7 12 13 12 16 28 45 50 42 50 52 41 23 22 8 6 6 9 5 5 6 9 10 8 18 23 17 15 4 25 19 10 6 2 8 9 10 18 25 32 33 47 46 47 38 45
32 33 39 37 44 46 18 10 10 13 19 31 20 36 39 47 53 54 54 48 35 26 25 10 13 7 4 6 5 8 21 13 13 31 21 18 22 21 14 10 5 2 11 8 10 16 22 30 27 38 37 42 46 40
39 40 35 20 24 30 8 10 16 13 25 33 44 50 52 52 51 56 55 51 42 28 15 7 0 5 9 13 2 14 8 24 18 20 11 7 17 15 14 14 8 8 12 17 16 16 19 27 24 26 31 32 41 42
38 29 24 14 22 10 10 16 17 17 14 18 40 46 44 43 49 51 51 44 37 31 14 9 12 20 21 18 13 27 31 23 24 22 23 14 26 16 17 16 13 12 18 15 13 13 22 26 22 22 28 27 31 40
39 5 18 18 22 21 14 14 15 23 28 34 43 44 38 41 43 37 36 39 37 32 8 26 31 37 44 46 39 33 9 35 27 35 26 26 27 12 30 25 16 10 26 23 24 23 22 24 23 14 19 21 26 23
40 27 32 22 14 13 19 26 21 18 25 32 44 42 24 19 36 51 54 44 23 35 38 48 46 48 41 39 41 39 28 31 33 31 32 31 25 26 28 19 21 42 34 27 27 27 19 22 19 14 15 20 21 25
26 20 24 17 15 13 16 23 19 15 10 10 32 22 17 27 36 47 25 35 48 51 48 44 48 55 52 34 30 16 17 31 36 34 37 30 30 29 30 22 33 36 31 22 16 15 23 19 16 19 18 14 15 11
24 16 11 13 24 11 14 25 25 24 31 26 24 32 33 37 47 32 22 31 40 43 37 35 12 22 22 28 31 28 27 29 36 40 36 27 21 22 21 33 30 25 28 27 20 21 21 18 11 6 5 15 9 8
12 14 10 13 13 12 12 20 28 24 32 30 34 27 19 32 19 26 27 31 41 37 23 21 10 11 20 16 17 19 12 31 35 43 31 42 22 32 28 33 32 31 24 25 21 24 21 11 7 2 7 10 4 10
11 13 13 13 16 18 17 29 20 15 13 13 8 19 21 12 18 15 7 36 44 40 34 43 3 6 29 12 6 7 5 20 30 39 45 48 34 37 36 50 44 35 27 26 27 30 30 25 13 7 5 8 7 11
11 15 20 34 43 43 24 44 45 21 25 24 17 23 7 11 15 12 24 48 39 45 20 39 24 11 22 26 11 16 14 21 16 32 37 34 40 30 46 43 46 40 33 30 28 25 21 19 20 17 9 1 8 7
26 21 28 40 42 42 26 24 29 31 19 15 12 3 2 4 4 9 19 40 39 52 44 28 30 27 31 18 13 15 11 19 25 27 29 37 30 14 48 54 56 51 44 39 33 30 24 19 20 22 18 10 9 2
23 29 39 38 45 38 37 28 29 43 42 38 19 14 11 11 19 14 22 30 48 60 50 43 37 38 30 35 24 20 16 13 20 29 43 38 56 52 59 63 53 46 37 31 25 18 27 28 25 20 17 13 9 0
32 37 21 25 21 14 40 40 46 55 49 45 43 38 25 2 13 9 7 15 21 21 28 37 36 39 42 35 25 20 14 8 17 7 13 30 34 41 38 37 34 32 39 25 21 20 19 24 27 23 20 13 3 3
26 24 19 27 24 43 40 37 38 41 48 43 38 37 30 16 11 34 45 31 26 24 27 25 26 26 34 30 21 15 9 16 13 10 12 17 28 55 48 42 34 39 24 20 20 23 22 23 30 27 12 6 2 3
21 11 13 8 7 20 23 29 30 23 23 29 30 17 26 8 14 31 51 41 29 26 24 21 19 18 15 15 9 12 14 14 20 30 38 45 39 40 43 39 36 37 29 33 29 25 23 23 24 23 22 13 6 9
36 31 26 10 6 5 8 10 6 9 19 16 14 26 20 13 12 31 38 38 28 22 18 17 17 20 16 9 15 15 13 18 21 26 25 34 40 42 41 39 32 25 21 18 17 17 16 18 14 15 17 12 5 3
Wind_Direction_500mb
312 314 316 317 316 317 318 319 322 321 318 319 320 324 330 333 331 328 324 292 248 267 282 283 285 280 306 255 261 317 325 356 327 2 332 339 347 354 323 0 347 43 279 342 319 96 122 347 340 46 317 311 321 35
311 312 313 313 314 315 314 317 317 319 316 317 318 318 321 326 326 327 310 305 272 270 266 291 291 282 266 255 267 261 287 300 322 350 339 310 312 319 290 1 330 14 339 304 65 290 359 24 1 338 328 334 18 22
310 310 311 311 312 312 316 317 313 314 312 311 311 312 314 317 321 319 302 303 265 274 299 311 317 320 255 247 253 207 256 298 314 353 308 291 288 342 342 32 311 336 5 8 168 357 132 44 6 354 350 353 3 9
310 309 309 311 313 315 319 317 316 314 311 310 309 309 310 312 315 315 302 294 238 269 274 272 321 335 283 241 250 276 245 287 296 294 257 274 275 206 357 300 197 346 333 323 301 10 341 353 352 339 327 352 8 358
306 305 307 312 315 317 321 316 314 315 316 317 320 317 312 312 312 311 301 274 208 228 289 298 317 334 225 234 246 249 254 294 326 294 228 243 258 350 138 285 41 4 12 331 300 318 325 319 326 327 354 355 354 352
304 305 307 316 317 317 320 318 315 317 320 322 322 314 311 313 313 315 311 352 195 223 290 297 288 237 216 234 237 238 239 222 252 281 271 268 274 297 342 70 58 52 342 298 283 310 310 309 326 334 347 349 337 325
312 314 319 319 316 316 319 320 317 316 314 318 317 309 309 313 303 202 215 40 174 205 264 280 282 268 223 218 232 235 227 222 235 263 245 261 263 38 33 309 285 341 285 309 319 311 331 328 319 339 339 325 308 306
311 311 314 313 314 315 318 320 318 314 314 317 315 305 309 306 301 232 231 254 189 209 249 270 276 287 198 201 232 210 207 220 229 248 255 245 317 226 237 201 312 330 357 0 342 327 322 338 341 331 320 312 319 309
312 313 316 317 316 317 321 324 321 317 322 318 315 304 300 231 248 236 244 201 193 226 271 233 252 265 173 217 211 198 218 233 239 214 225 201 228 240 257 289 284 53 24 10 11 359 349 346 340 335 332 323 326 324
313 318 320 317 317 321 323 326 325 325 333 331 337 345 177 13 336 302 228 193 213 214 231 254 222 259 268 33 243 212 217 243 260 226 221 192 208 287 267 239 80 21 30 29 25 8 2 352 344 344 331 318 312 311
317 323 320 317 319 322 328 332 329 328 346 7 339 288 282 282 306 244 229 192 183 222 220 239 220 226 240 171 205 91 320 286 267 247 190 223 165 201 94 47 83 9 15 24 16 356 2 359 352 345 324 305 305 306
322 324 320 320 322 324 335 347 344 344 337 312 292 285 297 247 238 256 221 220 197 235 184 212 215 204 138 115 83 53 225 330 273 339 278 107 124 138 117 28 28 74 47 23 12 11 9 4 3 353 350 332 321 303
326 325 324 318 322 326 335 335 335 332 328 324 273 259 227 227 234 225 224 213 212 207 190 191 121 128 110 94 85 144 185 239 300 3 277 45 118 166 157 80 39 54 28 26 18 7 12 18 20 6 23 35 42 31
330 329 324 322 332 324 322 330 329 329 339 271 234 243 209 208 226 212 249 268 323 293 133 153 141 132 147 174 153 197 228 65 329 273 246 153 152 196 139 94 59 49 34 30 19 25 33 28 14 15 27 41 48 47
335 331 325 323 326 319 323 326 328 319 288 270 240 239 228 232 269 276 268 274 285 193 172 233 147 154 144 188 189 205 232 227 195 231 232 246 155 123 126 121 77 59 19 33 40 35 37 30 29 28 27 34 48 50
333 328 305 309 310 311 315 310 314 233 249 243 240 272 290 289 283 295 310 320 336 359 335 88 133 159 186 191 170 198 162 220 239 209 234 257 106 28 179 128 89 78 52 50 52 45 51 48 41 42 40 49 44 40
326 296 296 307 311 315 316 294 280 225 237 239 247 257 265 275 278 279 286 290 284 289 200 122 288 214 205 174 195 153 199 217 234 245 231 195 184 199 205 169 137 94 143 91 82 59 55 47 36 36 39 34 47 50
314 308 315 326 322 325 337 233 240 247 244 237 251 259 267 271 274 275 281 286 296 252 260 180 204 202 199 239 211 214 211 227 266 273 255 234 175 182 189 181 181 246 144 109 48 78 78 62 50 42 39 28 35 54
313 318 326 339 348 330 292 243 215 255 246 253 254 261 266 270 278 276 274 279 278 286 274 166 193 237 221 218 215 351 222 226 232 246 274 217 195 173 187 196 221 239 135 84 93 91 81 75 64 40 45 39 30 39
306 316 325 326 323 292 269 261 235 251 260 257 284 285 283 283 287 287 287 285 265 255 239 225 222 231 255 274 245 249 232 248 218 236 231 228 189 199 224 203 231 185 145 142 114 91 93 80 64 63 39 51 38 34
313 166 265 302 297 247 257 270 256 273 272 264 271 280 276 281 284 291 300 303 292 245 245 256 253 255 257 263 272 274 270 241 188 171 209 192 205 225 205 216 234 16 148 141 122 105 111 98 82 72 67 47 52 53
299 310 301 288 246 248 245 232 242 286 314 286 294 285 270 266 279 279 283 280 277 281 239 238 250 258 256 252 259 263 283 273 210 173 168 181 178 202 206 195 179 128 136 122 118 115 114 110 101 79 74 70 46 46
298 294 259 226 237 245 259 240 251 239 243 281 314 306 299 302 292 296 287 273 257 265 269 265 253 245 244 244 244 263 264 241 206 188 184 185 188 210 184 155 150 129 119 114 132 139 128 114 108 97 85 71 81 58
281 244 230 229 209 251 256 248 249 273 281 286 285 285 287 286 291 274 274 282 289 292 288 282 272 232 241 276 247 247 241 216 208 187 182 194 190 185 178 154 141 131 124 138 131 118 105 116 113 117 127 70 20 34
266 244 226 256 255 234 246 252 257 261 267 274 277 276 274 276 285 288 292 286 287 297 310 300 253 282 244 234 284 285 245 203 187 189 201 188 179 169 161 150 142 148 144 144 139 144 149 135 124 4 42 126 55 43
239 235 219 226 235 253 265 268 292 327 328 305 311 318 331 299 263 260 22 8 347 350 7 327 329 45 292 73 268 206 202 200 203 181 168 174 179 188 182 151 141 147 141 153 145 149 147 143 126 97 45 42 117 83
229 245 232 249 272 285 287 295 299 300 290 291 296 299 319 341 15 10 342 2 348 358 343 334 17 332 356 42 11 15 187 199 233 211 191 188 182 257 186 175 165 159 160 157 147 147 138 151 141 152 178 14 76 84
225 257 253 259 259 266 278 281 288 297 285 287 329 342 358 309 262 330 15 357 358 16 14 360 32 23 40 48 58 56 95 166 179 180 166 176 174 166 174 171 162 158 155 158 159 153 150 154 157 162 172 163 126 320
245 258 263 267 268 271 273 267 268 270 277 298 292 284 275 264 328 340 351 350 2 356 347 352 11 41 41 37 36 25 14 102 158 180 164 159 163 156 166 160 166 167 167 175 164 153 165 157 161 170 180 171 167 81
268 266 252 256 255 252 252 256 267 277 285 281 286 286 276 43 36 27 359 25 13 355 350 12 24 43 35 44 41 27 27 359 249 333 210 181 150 171 168 167 173 173 164 155 157 150 149 158 165 183 186 178 205 167
267 270 261 259 273 270 273 276 276 272 277 269 278 289 281 169 98 32 23 16 4 350 352 21 30 34 36 23 36 32 24 57 74 170 166 81 145 167 156 147 159 171 169 162 146 130 134 166 164 173 180 164 179 359
253 258 274 257 249 280 271 261 259 262 279 279 270 298 304 48 57 22 10 11 15 21 26 23 25 35 22 1 45 85 88 106 115 104 99 114 126 133 146 150 148 146 137 140 144 156 176 175 177 167 157 176 227 304
279 272 264 267 262 277 247 206 234 252 250 248 64 50 51 70 77 19 14 19 16 9 19 37 54 63 58 82 97 104 116 108 109 112 89 89 103 117 118 119 128 137 141 140 143 142 140 144 159 161 160 177 200 328
Wind_Speed_850mb
55 55 57 60 61 62 59 58 62 60 49 47 47 47 48 48 46 42 49 19 33 24 56 58 39 44 28 11 4 19 22 8 9 11 7 7 5 8 8 6 9 4 6 7 8 2 5 31 38 12 18 45 17 47
56 58 62 63 60 61 64 66 58 54 48 47 48 50 49 48 48 44 47 12 26 31 44 69 68 49 44 54 31 3 12 16 7 5 6 6 5 4 9 5 9 3 4 5 1 5 9 38 37 41 37 42 48 52
61 60 63 61 62 63 73 65 52 52 54 54 55 54 53 48 49 49 50 33 22 34 48 13 35 14 17 25 35 12 10 8 4 14 8 5 7 3 4 5 7 16 16 6 3 7 9 10 36 57 64 65 47 48
64 63 57 61 69 72 68 60 54 55 57 57 56 51 49 47 48 54 51 24 23 15 9 14 17 15 18 29 15 3 22 18 20 20 8 5 6 10 1 4 2 8 11 18 8 13 29 24 45 43 50 47 52 43
59 57 59 64 67 70 61 56 56 56 55 50 44 42 45 49 51 49 39 22 36 23 9 26 45 20 40 31 17 10 11 9 10 9 6 6 9 6 4 3 6 10 4 6 7 27 21 40 52 51 37 39 48 46
60 64 66 59 63 64 61 56 55 52 47 43 42 43 49 49 49 16 9 4 19 30 12 7 21 9 34 34 22 23 16 9 9 10 11 10 10 6 5 3 1 8 10 15 11 34 36 46 35 43 41 35 36 45
58 56 56 57 59 60 59 55 55 50 43 43 43 43 45 42 26 13 4 1 17 25 8 11 10 8 39 28 34 36 30 14 14 10 9 11 9 4 3 2 11 11 16 21 26 30 23 27 38 44 33 33 37 33
53 54 50 54 53 56 57 53 52 50 45 38 37 38 36 26 9 9 20 15 19 23 11 6 8 13 36 22 12 27 15 17 14 11 8 6 5 2 4 1 22 24 13 22 22 20 31 35 34 35 28 28 35 32
47 47 48 48 51 54 56 53 49 50 38 33 30 37 23 7 7 9 13 25 38 16 8 7 5 6 13 17 13 14 13 5 11 8 7 5 3 3 10 20 22 18 19 25 27 34 43 35 34 29 27 26 36 36
46 44 45 46 49 50 52 51 47 46 30 29 18 9 4 6 13 11 7 9 11 13 13 10 27 9 5 9 6 5 8 5 4 9 7 5 5 6 15 8 6 16 19 25 28 39 38 38 34 37 31 32 31 35
43 42 43 44 44 45 47 44 41 43 28 19 12 9 10 3 9 8 9 13 14 9 16 17 37 17 9 7 5 3 1 7 6 4 6 4 4 11 2 14 13 19 24 22 23 29 34 38 33 42 34 25 26 28
42 40 40 41 41 40 30 28 37 36 26 27 25 39 27 7 10 8 7 8 11 9 23 11 22 33 8 7 6 1 1 6 7 9 5 1 4 13 12 5 9 10 21 28 33 31 39 34 34 43 29 19 25 27
39 39 38 38 36 27 26 33 41 44 35 16 5 5 7 7 7 11 10 8 8 9 21 22 6 12 10 8 3 2 3 7 16 6 4 4 11 13 5 9 17 18 28 28 32 34 34 39 36 42 38 23 25 21
38 35 34 34 21 23 33 43 53 45 15 8 8 8 11 11 11 12 15 13 17 21 9 10 14 11 10 9 6 6 8 2 5 3 6 6 19 28 13 11 13 23 27 24 26 31 37 30 42 37 39 39 40 37
34 32 24 17 27 40 48 53 38 18 8 10 12 10 13 27 36 39 38 38 38 8 11 5 5 18 6 7 7 4 5 4 9 7 5 9 17 15 15 11 12 17 15 20 24 30 26 35 56 45 36 32 36 41
29 18 11 32 47 54 47 40 26 9 9 12 17 13 26 25 25 36 34 20 24 23 13 5 0 6 7 6 8 10 8 10 7 7 20 15 8 2 5 8 6 9 7 13 16 23 32 30 43 45 52 39 36 39
28 6 34 45 47 44 32 20 7 12 13 12 16 28 45 50 42 50 52 41 23 22 8 6 6 9 5 5 6 9 10 8 18 23 17 15 4 25 19 10 6 2 8 9 10 18 25 32 33 47 46 47 38 45
32 33 39 37 44 46 18 10 10 13 19 31 20 36 39 47 53 54 54 48 35 26 25 10 13 7 4 6 5 8 21 13 13 31 21 18 22 21 14 10 5 2 11 8 10 16 22 30 27 38 37 42 46 40
39 40 35 20 24 30 8 10 16 13 25 33 44 50 52 52 51 56 55 51 42 28 15 7 0 5 9 13 2 14 8 24 18 20 11 7 17 15 14 14 8 8 12 17 16 16 19 27 24 26 31 32 41 42
38 29 24 14 22 10 10 16 17 17 14 18 40 46 44 43 49 51 51 44 37 31 14 9 12 20 21 18 13 27 31 23 24 22 23 14 26 16 17 16 13 12 18 15 13 13 22 26 22 22 28 27 31 40
39 5 18 18 22 21 14 14 15 23 28 34 43 44 38 41 43 37 36 39 37 32 8 26 31 37 44 46 39 33 9 35 27 35 26 26 27 12 30 25 16 10 26 23 24 23 22 24 23 14 19 21 26 23
40 27 32 22 14 13 19 26 21 18 25 32 44 42 24 19 36 51 54 44 23 35 38 48 46 48 41 39 41 39 28 31 33 31 32 31 25 26 28 19 21 42 34 27 27 27 19 22 19 14 15 20 21 25
26 20 24 17 15 13 16 23 19 15 10 10 32 22 17 27 36 47 25 35 48 51 48 44 48 55 52 34 30 16 17 31 36 34 37 30 30 29 30 22 33 36 31 22 16 15 23 19 16 19 18 14 15 11
24 16 11 13 24 11 14 25 25 24 31 26 24 32 33 37 47 32 22 31 40 43 37 35 12 22 22 28 31 28 27 29 36 40 36 27 21 22 21 33 30 25 28 27 20 21 21 18 11 6 5 15 9 8
12 14 10 13 13 12 12 20 28 24 32 30 34 27 19 32 19 26 27 31 41 37 23 21 10 11 20 16 17 19 12 31 35 43 31 42 22 32 28 33 32 31 24 25 21 24 21 11 7 2 7 10 4 10
11 13 13 13 16 18 17 29 20 15 13 13 8 19 21 12 18 15 7 36 44 40 34 43 3 6 29 12 6 7 5 20 30 39 45 48 34 37 36 50 44 35 27 26 27 30 30 25 13 7 5 8 7 11
11 15 20 34 43 43 24 44 45 21 25 24 17 23 7 11 15 12 24 48 39 45 20 39 24 11 22 26 11 16 14 21 16 32 37 34 40 30 46 43 46 40 33 30 28 25 21 19 20 17 9 1 8 7
26 21 28 40 42 42 26 24 29 31 19 15 12 3 2 4 4 9 19 40 39 52 44 28 30 27 31 18 13 15 11 19 25 27 29 37 30 14 48 54 56 51 44 39 33 30 24 19 20 22 18 10 9 2
23 29 39 38 45 38 37 28 29 43 42 38 19 14 11 11 19 14 22 30 48 60 50 43 37 38 30 35 24 20 16 13 20 29 43 38 56 52 59 63 53 46 37 31 25 18 27 28 25 20 17 13 9 0
32 37 21 25 21 14 40 40 46 55 49 45 43 38 25 2 13 9 7 15 21 21 28 37 36 39 42 35 25 20 14 8 17 7 13 30 34 41 38 37 34 32 39 25 21 20 19 24 27 23 20 13 3 3
26 24 19 27 24 43 40 37 38 41 48 43 38 37 30 16 11 34 45 31 26 24 27 25 26 26 34 30 21 15 9 16 13 10 12 17 28 55 48 42 34 39 24 20 20 23 22 23 30 27 12 6 2 3
21 11 13 8 7 20 23 29 30 23 23 29 30 17 26 8 14 31 51 41 29 26 24 21 19 18 15 15 9 12 14 14 20 30 38 45 39 40 43 39 36 37 29 33 29 25 23 23 24 23 22 13 6 9
36 31 26 10 6 5 8 10 6 9 19 16 14 26 20 13 12 31 38 38 28 22 18 17 17 20 16 9 15 15 13 18 21 26 25 34 40 42 41 39 32 25 21 18 17 17 16 18 14 15 17 12 5 3
Wind_Direction_850mb
312 314 316 317 316 317 318 319 322 321 318 319 320 324 330 333 331 328 324 292 248 267 282 283 285 280 306 255 261 317 325 356 327 2 332 339 347 354 323 0 347 43 279 342 319 96 122 347 340 46 317 311 321 35
311 312 313 313 314 315 314 317 317 319 316 317 318 318 321 326 326 327 310 305 272 270 266 291 291 282 266 255 267 261 287 300 322 350 339 310 312 319 290 1 330 14 339 304 65 290 359 24 1 338 328 334 18 22
310 310 311 311 312 312 316 317 313 314 312 311 311 312 314 317 321 319 302 303 265 274 299 311 317 320 255 247 253 207 256 298 314 353 308 291 288 342 342 32 311 336 5 8 168 357 132 44 6 354 350 353 3 9
310 309 309 311 313 315 319 317 316 314 311 310 309 309 310 312 315 315 302 294 238 269 274 272 321 335 283 241 250 276 245 287 296 294 257 274 275 206 357 300 197 346 333 323 301 10 341 353 352 339 327 352 8 358
306 305 307 312 315 317 321 316 314 315 316 317 320 317 312 312 312 311 301 274 208 228 289 298 317 334 225 234 246 249 254 294 326 294 228 243 258 350 138 285 41 4 12 331 300 318 325 319 326 327 354 355 354 352
304 305 307 316 317 317 320 318 315 317 320 322 322 314 311 313 313 315 311 352 195 223 290 297 288 237 216 234 237 238 239 222 252 281 271 268 274 297 342 70 58 52 342 298 283 310 310 309 326 334 347 349 337 325
312 314 319 319 316 316 319 320 317 316 314 318 317 309 309 313 303 202 215 40 174 205 264 280 282 268 223 218 232 235 227 222 235 263 245 261 263 38 33 309 285 341 285 309 319 311 331 328 319 339 339 325 308 306
311 311 314 313 314 315 318 320 318 314 314 317 315 305 309 306 301 232 231 254 189 209 249 270 276 287 198 201 232 210 207 220 229 248 255 245 317 226 237 201 312 330 357 0 342 327 322 338 341 331 320 312 319 309
312 313 316 317 316 317 321 324 321 317 322 318 315 304 300 231 248 236 244 201 193 226 271 233 252 265 173 217 211 198 218 233 239 214 225 201 228 240 257 289 284 53 24 10 11 359 349 346 340 335 332 323 326 324
313 318 320 317 317 321 323 326 325 325 333 331 337 345 177 13 336 302 228 193 213 214 231 254 222 259 268 33 243 212 217 243 260 226 221 192 208 287 267 239 80 21 30 29 25 8 2 352 344 344 331 318 312 311
317 323 320 317 319 322 328 332 329 328 346 7 339 288 282 282 306 244 229 192 183 222 220 239 220 226 240 171 205 91 320 286 267 247 190 223 165 201 94 47 83 9 15 24 16 356 2 359 352 345 324 305 305 306
322 324 320 320 322 324 335 347 344 344 337 312 292 285 297 247 238 256 221 220 197 235 184 212 215 204 138 115 83 53 225 330 273 339 278 107 124 138 117 28 28 74 47 23 12 11 9 4 3 353 350 332 321 303
326 325 324 318 322 326 335 335 335 332 328 324 273 259 227 227 234 225 224 213 212 207 190 191 121 128 110 94 85 144 185 239 300 3 277 45 118 166 157 80 39 54 28 26 18 7 12 18 20 6 23 35 42 31
330 329 324 322 332 324 322 330 329 329 339 271 234 243 209 208 226 212 249 268 323 293 133 153 141 132 147 174 153 197 228 65 329 273 246 153 152 196 139 94 59 49 34 30 19 25 33 28 14 15 27 41 48 47
335 331 325 323 326 319 323 326 328 319 288 270 240 239 228 232 269 276 268 274 285 193 172 233 147 154 144 188 189 205 232 227 195 231 232 246 155 123 126 121 77 59 19 33 40 35 37 30 29 28 27 34 48 50
333 328 305 309 310 311 315 310 314 233 249 243 240 272 290 289 283 295 310 320 336 359 335 88 133 159 186 191 170 198 162 220 239 209 234 257 106 28 179 128 89 78 52 50 52 45 51 48 41 42 40 49 44 40
326 296 296 307 311 315 316 294 280 225 237 239 247 257 265 275 278 279 286 290 284 289 200 122 288 214 205 174 195 153 199 217 234 245 231 195 184 199 205 169 137 94 143 91 82 59 55 47 36 36 39 34 47 50
314 308 315 326 322 325 337 233 240 247 244 237 251 259 267 271 274 275 281 286 296 252 260 180 204 202 199 239 211 214 211 227 266 273 255 234 175 182 189 181 181 246 144 109 48 78 78 62 50 42 39 28 35 54
313 318 326 339 348 330 292 243 215 255 246 253 254 261 266 270 278 276 274 279 278 286 274 166 193 237 221 218 215 351 222 226 232 246 274 217 195 173 187 196 221 239 135 84 93 91 81 75 64 40 45 39 30 39
306 316 325 326 323 292 269 261 235 251 260 257 284 285 283 283 287 287 287 285 265 255 239 225 222 231 255 274 245 249 232 248 218 236 231 228 189 199 224 203 231 185 145 142 114 91 93 80 64 63 39 51 38 34
313 166 265 302 297 247 257 270 256 273 272 264 271 280 276 281 284 291 300 303 292 245 245 256 253 255 257 263 272 274 270 241 188 171 209 192 205 225 205 216 234 16 148 141 122 105 111 98 82 72 67 47 52 53
299 310 301 288 246 248 245 232 242 286 314 286 294 285 270 266 279 279 283 280 277 281 239 238 250 258 256 252 259 263 283 273 210 173 168 181 178 202 206 195 179 128 136 122 118 115 114 110 101 79 74 70 46 46
298 294 259 226 237 245 259 240 251 239 243 281 314 306 299 302 292 296 287 273 257 265 269 265 253 245 244 244 244 263 264 241 206 188 184 185 188 210 184 155 150 129 119 114 132 139 128 114 108 97 85 71 81 58
281 244 230 229 209 251 256 248 249 273 281 286 285 285 287 286 291 274 274 282 289 292 288 282 272 232 241 276 247 247 241 216 208 187 182 194 190 185 178 154 141 131 124 138 131 118 105 116 113 117 127 70 20 34
266 244 226 256 255 234 246 252 257 261 267 274 277 276 274 276 285 288 292 286 287 297 310 300 253 282 244 234 284 285 245 203 187 189 201 188 179 169 161 150 142 148 144 144 139 144 149 135 124 4 42 126 55 43
239 235 219 226 235 253 265 268 292 327 328 305 311 318 331 299 263 260 22 8 347 350 7 327 329 45 292 73 268 206 202 200 203 181 168 174 179 188 182 151 141 147 141 153 145 149 147 143 126 97 45 42 117 83
229 245 232 249 272 285 287 295 299 300 290 291 296 299 319 341 15 10 342 2 348 358 343 334 17 332 356 42 11 15 187 199 233 211 191 188 182 257 186 175 165 159 160 157 147 147 138 151 141 152 178 14 76 84
225 257 253 259 259 266 278 281 288 297 285 287 329 342 358 309 262 330 15 357 358 16 14 360 32 23 40 48 58 56 95 166 179 180 166 176 174 166 174 171 162 158 155 158 159 153 150 154 157 162 172 163 126 320
245 258 263 267 268 271 273 267 268 270 277 298 292 284 275 264 328 340 351 350 2 356 347 352 11 41 41 37 36 25 14 102 158 180 164 159 163 156 166 160 166 167 167 175 164 153 165 157 161 170 180 171 167 81
268 266 252 256 255 252 252 256 267 277 285 281 286 286 276 43 36 27 359 25 13 355 350 12 24 43 35 44 41 27 27 359 249 333 210 181 150 171 168 167 173 173 164 155 157 150 149 158 165 183 186 178 205 167
267 270 261 259 273 270 273 276 276 272 277 269 278 289 281 169 98 32 23 16 4 350 352 21 30 34 36 23 36 32 24 57 74 170 166 81 145 167 156 147 159 171 169 162 146 130 134 166 164 173 180 164 179 359
253 258 274 257 249 280 271 261 259 262 279 279 270 298 304 48 57 22 10 11 15 21 26 23 25 35 22 1 45 85 88 106 115 104 99 114 126 133 146 150 148 146 137 140 144 156 176 175 177 167 157 176 227 304
279 272 264 267 262 277 247 206 234 252 250 248 64 50 51 70 77 19 14 19 16 9 19 37 54 63 58 82 97 104 116 108 109 112 89 89 103 117 118 119 128 137 141 140 143 142 140 144 159 161 160 177 200 328